Tampico, Mexico

5:52 AM CDT on June 27, 2017 (GMT -0500)
Gen Francisco Javier Mina

Weather History for MMTM - October, 2012

Change the Weather History Date:

Friday, October 12, 2012

  Actual Average Record
Temperature  
Mean Temperature 83 °F -  
Max Temperature 91 °F 82 °F 95 °F (2015)
Min Temperature 75 °F 66 °F 64 °F (2000)
Cooling Degree Days 18    
Growing Degree Days 33 (Base 50)    
Moisture  
Dew Point 75 °F    
Average Humidity 81    
Maximum Humidity 96    
Minimum Humidity 57    
Precipitation  
Precipitation 0.04 in 0.09 in - ()
Sea Level Pressure  
Sea Level Pressure 30.05 in    
Wind  
Wind Speed 3 mph ()    
Max Wind Speed 8 mph    
Max Gust Speed -    
Visibility 8.1 miles    
Events Rain    
Averages and records for this station are not official NWS values.
T = Trace of Precipitation, MM = Missing Value Source: Averaged Metar Reports

Daily Weather History Graph

Daily Weather History Graph

Search for Another Location

Airport or City:

Trip Planner

Search our weather history database for the weather conditions in past years. The results will help you decide how hot, cold, wet, or windy it might be!

Date:

Astronomy

Oct. 12, 2012 Rise Set
Actual Time 7:26 AM CDT 7:08 PM CDT
Civil Twilight 7:04 AM CDT 7:30 PM CDT
Nautical Twilight 6:38 AM CDT 7:56 PM CDT
Astronomical Twilight 6:12 AM CDT 8:22 PM CDT
Moon 4:31 AM CDT (10/12) 5:03 PM CDT (10/12)
Length of Visible Light 12h 26m
Length of Day
11h 41m
Waning Crescent, 10% of the Moon is Illuminated
Oct 12
Waning Crescent
Oct 15
New
Oct 21
First Quarter
Oct 29
Full
Nov 6
Last Quarter

Hourly Weather History & Observations

Time (CDT) Temp. Heat Index Dew Point Humidity Pressure Visibility Wind Dir Wind Speed Gust Speed Precip Events Conditions
12:45 AM 78 °F - 77 °F 96% 30.09 in 6 mi NNE 2.2 mph - -   Scattered Clouds
3:50 AM 77 °F - 76 °F 96% 30.07 in 6 mi North 2.2 mph - -   Mostly Cloudy
5:41 AM 75.2 °F - 73.4 °F 94% 30.04 in 7.0 mi West 4.6 mph - N/A   Mostly Cloudy
6:40 AM 77 °F - 76 °F 96% 30.09 in 6 mi WNW 2.2 mph - - Rain Light Drizzle
6:43 AM 75.2 °F - 73.4 °F 94% 30.01 in 7.0 mi Calm Calm - N/A   Mostly Cloudy
8:02 AM 77.0 °F - 73.4 °F 89% 30.07 in 6.0 mi Calm Calm - N/A   Mostly Cloudy
8:44 AM 77.0 °F - 75.2 °F 94% 30.10 in 6.0 mi NW 5.8 mph - N/A   Mostly Cloudy
9:40 AM 81 °F - 75 °F 76% 30.14 in 11 mi WNW 2.2 mph - -   Scattered Clouds
9:42 AM 78.8 °F - 75.2 °F 89% 30.11 in 7.0 mi NW 8.1 mph - N/A   Mostly Cloudy
10:42 AM 82.4 °F 89.5 °F 75.2 °F 79% 30.10 in 7.0 mi NW 6.9 mph - N/A   Mostly Cloudy
11:43 AM 84.2 °F 92.3 °F 75.2 °F 74% 30.08 in 7.0 mi NW 4.6 mph - N/A   Scattered Clouds
12:40 PM 87 °F - 74 °F 57% 30.11 in 16 mi SW 4.5 mph - -   Partly Cloudy
12:40 PM 84.2 °F 90.9 °F 73.4 °F 70% 30.02 in 7.0 mi WNW 6.9 mph - N/A   Mostly Cloudy
1:43 PM 82.4 °F 89.5 °F 75.2 °F 79% 30.04 in 6.0 mi Calm Calm - N/A   Mostly Cloudy
2:46 PM 86.0 °F 95.1 °F 75.2 °F 70% 30.02 in 8.0 mi Calm Calm - N/A   Mostly Cloudy
3:40 PM 90 °F - 78 °F 62% 30.04 in 16 mi East 4.5 mph - -   Scattered Clouds
3:50 PM 84.2 °F 92.3 °F 75.2 °F 74% 30.01 in 8.0 mi Calm Calm - N/A   Mostly Cloudy
4:49 PM 86.0 °F 95.1 °F 75.2 °F 70% 30.00 in 8.0 mi SE 5.8 mph - N/A   Scattered Clouds
5:49 PM 84.2 °F 92.3 °F 75.2 °F 74% 29.99 in 8.0 mi ENE 5.8 mph - N/A   Clear
6:45 PM 85 °F - 77 °F 70% 30.03 in 16 mi East 6.7 mph - -   Scattered Clouds
6:47 PM 82.4 °F 89.5 °F 75.2 °F 79% 30.01 in 8.0 mi East 5.8 mph - N/A   Partly Cloudy
7:52 PM 80.6 °F 86.2 °F 75.2 °F 84% 30.01 in 7.0 mi East 4.6 mph - N/A   Partly Cloudy
8:44 PM 80.6 °F 86.2 °F 75.2 °F 84% 30.03 in 7.0 mi Calm Calm - N/A   Scattered Clouds
9:40 PM 81 °F - 77 °F 85% 30.08 in 6 mi East 4.5 mph - -  
9:48 PM 78.8 °F - 75.2 °F 89% 30.04 in 7.0 mi Calm Calm - N/A   Scattered Clouds
10:42 PM 80.6 °F 86.2 °F 75.2 °F 84% 30.06 in 7.0 mi Calm Calm - N/A   Partly Cloudy
11:55 PM 80.6 °F 86.2 °F 75.2 °F 84% 30.06 in 7.0 mi Calm Calm - N/A   Partly Cloudy